Home > Time Zones > World Clock > Weather > Aktau > Past weeks

Flag for Kazakhstan Weather past 2 weeks in Aktau, Kazakhstan

Now
36 °F

Drizzle. Fog.


Feels Like: 33 °F
Forecast: 31 / 42 °F
Wind: 3 mph from Southeast

Location: Aktau

Current Time: Dec 20, 2014 at 11:24:33 PM

Latest Report: Dec 20, 2014 at 10:30 PM


Visibility: 1 mi

Pressure: 30.18 "Hg

Humidity: 93%

Dew point: 34 °F

Location of AktauLocation

Historic Weather in Aktau — Graph

°F

Aktau temperature yesterday

Maximum temperature yesterday: 41 °F (at 1:00 PM)
Minimum temperature yesterday: 32 °F (at 11:30 PM)
Average temperature yesterday: 37 °F

Past Weeks' High & Low Weather Summary

 TemperatureHumidityPressure
High48 °F (Dec 13, 2:30 PM)93% (Dec 6, 12:30 AM)30.77 "Hg (Dec 6, 12:30 AM)
Low12 °F (Dec 7, 8:00 AM)25% (Dec 13, 1:00 PM)30.09 "Hg (Dec 13, 6:00 AM)
Average31 °F74%30.36 "Hg
* Reported Dec 5 10:00 PM — Dec 20 10:00 PM, Aktau, Weather by CustomWeather, © 2014

Note: Actual official high and low records may vary slightly from our data, if they occured in-between our weather recording intervals... More about our weather records

Advertising

Aktau weather history for previous 24 hours

 ConditionsComfort  
Time TempWeatherWind HumidityBarometerVisibility
10:00 PM
Dec 20
36 °FDrizzle. Fog.6 mph93%30.18 "Hg1 mi
9:30 PM36 °FDrizzle. Fog.3 mph93%30.18 "Hg2 mi
9:00 PM36 °FDrizzle. Fog.3 mph93%30.18 "Hg1 mi
8:30 PM37 °FDrizzle. Fog.6 mph87%30.18 "Hg1 mi
8:00 PM37 °FFog.6 mph87%30.18 "Hg1 mi
7:30 PM37 °FFog.6 mph87%30.18 "Hg1 mi
7:00 PM37 °FFog.6 mph93%30.18 "Hg1 mi
6:30 PM37 °FFog.3 mph93%30.18 "Hg1 mi
6:00 PM37 °FPartly sunny.1 mph87%30.18 "Hg4 mi
5:30 PM37 °FPartly sunny.6 mph93%30.18 "HgN/A
5:00 PM37 °FPartly sunny.3 mph93%30.18 "HgN/A
4:30 PM39 °FPartly sunny.3 mph87%30.18 "Hg5 mi
4:00 PM37 °FDrizzle. Partly sunny.1 mph93%30.21 "Hg4 mi
3:30 PM37 °FPartly sunny.3 mph93%30.21 "HgN/A
3:00 PM37 °FPartly sunny.6 mph93%30.21 "HgN/A
2:30 PM37 °FPartly sunny.3 mph93%30.21 "HgN/A
2:00 PM37 °FPartly sunny.6 mph93%30.21 "HgN/A
1:30 PM37 °FPartly sunny.6 mph87%30.21 "HgN/A
1:00 PM37 °FPartly sunny.6 mph93%30.21 "HgN/A
12:30 PM37 °FFog.6 mph93%30.24 "Hg3 mi
12:00 PM37 °FFog.3 mph87%30.24 "Hg3 mi
11:30 AM36 °FPartly sunny.3 mph93%30.24 "HgN/A
11:00 AM34 °FPartly cloudy.3 mph93%30.24 "HgN/A
10:30 AM32 °FPassing clouds.1 mph93%30.24 "HgN/A
10:00 AM34 °FPassing clouds.6 mph87%30.21 "HgN/A
9:30 AM32 °FIce fog.8 mph93%30.21 "Hg1 mi
9:00 AM32 °FFog.6 mph93%30.21 "Hg1 mi
8:30 AM34 °FPassing clouds.6 mph87%30.21 "HgN/A
8:00 AM34 °FPassing clouds.3 mph87%30.21 "HgN/A
7:30 AM34 °FLow clouds.3 mph87%30.18 "HgN/A
7:00 AM32 °FLow clouds.3 mph93%30.18 "HgN/A
6:30 AM32 °FPassing clouds.6 mph87%30.18 "HgN/A
6:00 AM32 °FPassing clouds.3 mph87%30.18 "HgN/A
5:30 AM30 °FPassing clouds.6 mph86%30.18 "HgN/A
5:00 AM30 °FPassing clouds.6 mph86%30.18 "HgN/A
4:30 AM30 °FClear.3 mph86%30.18 "Hg10 mi
4:00 AM30 °FClear.6 mph86%30.18 "Hg10 mi
3:30 AM30 °FClear.6 mph86%30.18 "Hg10 mi
3:00 AM30 °FClear.3 mph93%30.18 "Hg10 mi
2:30 AM30 °FPassing clouds.6 mph93%30.18 "HgN/A
2:00 AM30 °FPassing clouds.6 mph93%30.18 "HgN/A
1:30 AM30 °FPassing clouds.3 mph93%30.18 "HgN/A
1:00 AM30 °FPassing clouds.3 mph93%30.18 "HgN/A
12:30 AM32 °FPassing clouds.3 mph87%30.15 "HgN/A
12:00 AM32 °FPassing clouds.8 mph87%30.18 "HgN/A
11:30 PM
Dec 19
32 °FPassing clouds.8 mph87%30.18 "HgN/A
11:00 PM34 °FPassing clouds.8 mph87%30.15 "HgN/A
Weather by CustomWeather, © 2014

See weather overviewHow to use our weather pages